Regional Weather Roundup
Issued by NWS

Home | Current Version | Previous Version | Graphics & Text | Print | Product List | Glossary On
Versions: 1 2 3 4 5 6 7 8 9 10 11 12 13 14 15 16 17 18 19 20 21 22 23 24 25 26 27 28 29 30 31 32 33 34 35 36 37 38 39 40 41 42 43 44 45 46 47 48 49 50
847
ASUS45 KBOU 192207
RWRCO

WEATHER ROUNDUP FOR COLORADO
NATIONAL WEATHER SERVICE DENVER/BOULDER CO
300 PM MST THU JAN 19 2017

NOTE: "FAIR" INDICATES FEW OR NO CLOUDS BELOW 12000 FEET WITH NO
SIGNIFICANT WEATHER AND/OR OBSTRUCTIONS TO VISIBILITY.

COZ001>005-013-030-031-192300-
...NORTHWEST COLORADO...

CITY           SKY/WX    TMP DP  RH WIND       PRES   REMARKS
CRAIG          CLOUDY    28  19  69 SW7       29.72F WCI  21
HAYDEN         CLOUDY    25  16  68 CALM      29.71F
MEEKER         CLOUDY    36  23  59 SW5       29.71F
MOUNT WERNER   NOT AVBL
STEAMBOAT SPGS FAIR      27  16  62 CALM      29.70F
WALDEN           N/A     14   7  73 CALM      29.69F
$$

COZ006>008-011-192300-
...WEST CENTRAL VALLEYS...

CITY           SKY/WX    TMP DP  RH WIND       PRES   REMARKS
GRAND JUNCTION CLOUDY    35  29  78 NW6       29.74F WCI  30
MONTROSE       CLOUDY    39  26  59 NW5       29.75S
EAGLE          SUNNY     28  18  64 W5        29.74F WCI  23
RIFLE          CLOUDY    37  24  59 E3        29.73F
DELTA          CLOUDY    42  28  57 W5        29.74F
NUCLA          CLOUDY    37  28  70 SW8       29.81S
$$

COZ017>023-064>068-192300-
...SOUTHWEST COLORADO...

CITY           SKY/WX    TMP DP  RH WIND       PRES   REMARKS
DURANGO        CLOUDY    36  25  64 SW8       29.78F
CORTEZ         FLURRIES  36  30  79 SW6       29.80F
PAGOSA SPRINGS CLOUDY    34  22  61 SE5       29.79S WCI  30
TELLURIDE      NOT AVBL
WOLF CREEK PAS CLOUDY    16  16 100 S15G21    29.79F WCI   1
$$

COZ009-010-012-014-032>034-037-058>063-192300-
...CENTRAL COLORADO...

CITY           SKY/WX    TMP DP  RH WIND       PRES   REMARKS
ASPEN          PTSUNNY   36  17  46 N6        29.68F
BUENA VISTA    FAIR      35  19  53 S6        29.64F WCI  30
COPPER MTN     FAIR      28  14  54 W8        29.72F WCI  20
BERTHOUD PASS  NOT AVBL
COTTONWOOD PAS FAIR      39  12  33 SW3       29.67S
GUNNISON       FAIR      10   6  84 SE3       29.80S
KREMMLING      FAIR      21  10  63 CALM      29.76F
LEADVILLE      FAIR      35  12  38 NW12      29.64F WCI  27
MONARCH PASS   FAIR      21  16  79 SW7       29.81F WCI  13
SALIDA         FAIR      40  18  41 SW16G25   29.69F
SUNLIGHT       CLOUDY    21  18  86 SW6       29.75F WCI  14
WILKERSON PASS FAIR      34  10  37 W6        29.71F WCI  29
$$

COZ069>075-192300-
...SAN LUIS VALLEY/SANGRE DE CRISTO MOUNTAINS...

CITY           SKY/WX    TMP DP  RH WIND       PRES   REMARKS
ALAMOSA        CLOUDY    22  19  89 W5        29.76F WCI  16
LA VETA PASS   CLOUDY    21  18  86 NE23G33   29.67S FOG     WCI   5
SAGUACHE       FAIR      27  21  80 S8        29.76S WCI  18
$$

COZ035-036-038>040-192300-
...NORTHERN COLORADO FRONT RANGE...

CITY           SKY/WX    TMP DP  RH WIND       PRES   REMARKS
DENVER INTL AP FAIR      53  17  24 E9        29.51S
DMNS CITY PARK   N/A     53  16  22 E20       29.50S
AURORA         MOSUNNY   53  19  25 E8        29.51F
FRONT RANGE AP NOT AVBL
ERIE MUNI ARPT FAIR      53  21  28 NE5       29.50F
BOULDER MUN AP FAIR      52  23  32 CALM      29.51S
CENTENNIAL     FAIR      51  19  28 E8        29.51F
BROOMFIELD     MOSUNNY   55  19  24 E7        29.52F
FORT COLLINS   FAIR      54  21  28 S3        29.51F
LONGMONT       FAIR      56  20  24 E3        29.53S
$$

COZ041-046-047-076>085-087-088-192300-
...PIKES PEAK/PALMER DIVIDE AND SOUTHERN FOOTHILLS...

CITY           SKY/WX    TMP DP  RH WIND       PRES   REMARKS
COLO. SPRINGS  FAIR      52  13  21 S7        29.54F
A. F. ACADEMY  FAIR      53  11  18 SE7       29.53F
SCHRIEVER AFB  NOT AVBL
ELLICOTT       FAIR     N/A N/A N/A CALM      29.52F
FALCON         FAIR      52   7  16 S9        29.56F
FORT CARSON    SUNNY     52  14  22 S3        29.53S
LIMON          FAIR      53  14  21 N7        29.53S
MONUMENT HILL  FAIR      46  18  31 E8        29.56F
TRINIDAD       FAIR      40  24  53 CALM      29.55S
$$

COZ042>045-048>051-090-091-192300-
...NORTHEAST COLORADO...

CITY           SKY/WX    TMP DP  RH WIND       PRES   REMARKS
GREELEY ARPT   FAIR      49  29  46 NE5       29.52S
AKRON          FAIR      46  23  40 NW3       29.51F
BURLINGTON     FAIR      49  29  46 NE3       29.52F
WRAY           FAIR      48  25  40 CALM      29.52F
STERLING       FAIR      48  28  46 S3        29.50F
HOLYOKE        FAIR      52  28  40 CALM      29.52S
FORT MORGAN    FAIR      50  20  31 CALM      29.52S
$$

COZ086-089-092>099-192300-
...SOUTHEAST COLORADO...

CITY           SKY/WX    TMP DP  RH WIND       PRES   REMARKS
PUEBLO         FAIR      55  22  27 SE5       29.49F
LA JUNTA       FAIR      45  30  55 SE5       29.51F
LAMAR          FAIR      45  28  51 SW6       29.51F
SPRINGFIELD    NOT AVBL
$$




USA.gov is the U.S. government's official web portal to all federal, state and local government web resources and services.